Weather History for Hot Springs, AR

Change the Weather History Date:

Wednesday, August 13, 2014

  Actual Average Record
Temperature  
Mean Temperature 74 °F -  
Max Temperature 86 °F 92 °F 106 °F (1980)
Min Temperature 61 °F 68 °F 53 °F (1967)
Cooling Degree Days 8    
Growing Degree Days 24 (Base 50)    
Moisture  
Dew Point 61 °F    
Average Humidity 65    
Maximum Humidity 96    
Minimum Humidity 40    
Precipitation  
Precipitation 0.00 in - - ()
Sea Level Pressure  
Sea Level Pressure 30.06 in    
Wind  
Wind Speed 3 mph (SSW)    
Max Wind Speed 7 mph    
Max Gust Speed -    
Visibility 10 miles    
Events      
Averages and records for this station are not official NWS values.
T = Trace of Precipitation, MM = Missing Value Source: NWS Daily Summary

Daily Weather History Graph

Daily Weather History Graph

Search for Another Location

Airport:

Trip Planner

Search our weather history database for the weather conditions in past years. The results will help you decide how hot, cold, wet, or windy it might be!

Date:

Astronomy

Aug. 13, 2014 Rise Set
Actual Time 6:31 AM CDT 8:02 PM CDT
Civil Twilight 6:05 AM CDT 8:28 PM CDT
Nautical Twilight 5:32 AM CDT 9:00 PM CDT
Astronomical Twilight 4:59 AM CDT 9:34 PM CDT
Moon 9:59 PM CDT (8/13) 9:49 AM CDT (8/13)
Length of Visible Light 14h 23m
Length of Day
13h 30m
Waning Gibbous, 87% of the Moon is Illuminated
Aug 13
Waning Gibbous
Aug 17
Last Quarter
Aug 25
New
Sep 2
First Quarter
Sep 8
Full

Hourly Weather History & Observations

Time (CDT) Temp. Heat Index Dew Point Humidity Pressure Visibility Wind Dir Wind Speed Gust Speed Precip Events Conditions
12:53 AM 66.2 °F - 64.4 °F 94% 30.05 in 10.0 mi West 3.5 mph - N/A   Clear
1:53 AM 64.9 °F - 63.0 °F 93% 30.03 in 10.0 mi WNW 4.6 mph - N/A   Clear
2:53 AM 64.0 °F - 63.0 °F 96% 30.04 in 10.0 mi Calm Calm - N/A   Clear
3:53 AM 64.0 °F - 61.0 °F 90% 30.04 in 10.0 mi Calm Calm - N/A   Clear
4:53 AM 63.0 °F - 61.0 °F 93% 30.06 in 10.0 mi NW 3.5 mph - N/A   Clear
5:53 AM 61.0 °F - 59.0 °F 93% 30.07 in 10.0 mi Calm Calm - N/A   Clear
8:53 AM 71.1 °F - 62.1 °F 73% 30.11 in 10.0 mi Calm Calm - N/A   Clear
9:53 AM 75.2 °F - 62.6 °F 65% 30.12 in 10.0 mi Calm Calm - N/A   Clear
10:53 AM 79.0 °F - 62.1 °F 56% 30.11 in 10.0 mi ESE 3.5 mph - N/A   Clear
11:53 AM 82.0 °F 82.7 °F 61.0 °F 49% 30.10 in 10.0 mi SW 5.8 mph - N/A   Clear
12:53 PM 82.9 °F 82.8 °F 59.0 °F 44% 30.09 in 10.0 mi Variable 6.9 mph - N/A   Mostly Cloudy
1:53 PM 84.0 °F 83.5 °F 57.9 °F 41% 30.08 in 10.0 mi Variable 3.5 mph - N/A   Clear
2:53 PM 86.0 °F 85.4 °F 59.0 °F 40% 30.08 in 10.0 mi West 5.8 mph - N/A   Scattered Clouds
3:53 PM 84.0 °F 83.5 °F 57.9 °F 41% 30.04 in 10.0 mi SE 3.5 mph - N/A   Clear
4:53 PM 86.0 °F 85.4 °F 59.0 °F 40% 30.04 in 10.0 mi SSW 4.6 mph - N/A   Mostly Cloudy
5:53 PM 84.0 °F 83.5 °F 57.9 °F 41% 30.03 in 10.0 mi East 3.5 mph - N/A   Mostly Cloudy
6:53 PM 84.9 °F 84.4 °F 59.0 °F 41% 30.02 in 10.0 mi Calm Calm - N/A   Partly Cloudy
7:53 PM 80.1 °F 81.5 °F 63.0 °F 56% 30.02 in 10.0 mi Calm Calm - N/A   Clear
8:53 PM 75.9 °F - 64.0 °F 67% 30.03 in 10.0 mi Calm Calm - N/A   Overcast
9:53 PM 75.9 °F - 64.0 °F 67% 30.05 in 10.0 mi East 5.8 mph - N/A   Mostly Cloudy
11:53 PM 72.0 °F - 64.0 °F 76% 30.06 in 10.0 mi Calm Calm - N/A   Clear